VIR2PF EGLL-EGPF

Flight info

Callsign VIR2PF
Flight time 0h 59m
Altitude 38000
Route ULTIB T420 TNT UN57 POL UN601 RIBEL DCT ASLIB
Aircraft A346/H-SDE2E3FGHIJ3J4J5M1RWXY/LB1D1

Departure

Time 2026-05-07 00:05
Airport London Heathrow Airport (EGLL)

Arrival

Time 2026-05-07 01:05
Airport Glasgow Airport (EGPF)
Time Latitude Longitude Altitude Speed Heading
2026-05-06 23:51 51.47016 -0.46542 94 ft 0 kts 56°
2026-05-06 23:55 51.47013 -0.46549 94 ft 4 kts 56°
2026-05-06 23:56 51.46998 -0.46584 97 ft 4 kts 56°
2026-05-06 23:56 51.46986 -0.46613 95 ft 4 kts 64°
2026-05-06 23:56 51.46982 -0.46640 96 ft 4 kts 102°
2026-05-06 23:56 51.46991 -0.46663 95 ft 4 kts 140°
2026-05-06 23:57 51.47011 -0.46687 95 ft 4 kts 143°
2026-05-06 23:57 51.47033 -0.46712 95 ft 4 kts 148°
2026-05-06 23:57 51.47054 -0.46726 96 ft 4 kts 175°
2026-05-06 23:57 51.47076 -0.46727 94 ft 4 kts 179°
2026-05-06 23:58 51.47103 -0.46727 95 ft 4 kts 180°
2026-05-06 23:58 51.47115 -0.46727 94 ft 0 kts 180°
2026-05-07 00:01 51.47087 -0.46727 94 ft 5 kts 186°
2026-05-07 00:01 51.47060 -0.46776 97 ft 8 kts 247°
2026-05-07 00:01 51.47036 -0.46836 97 ft 10 kts 220°
2026-05-07 00:01 51.46919 -0.46863 97 ft 16 kts 180°
2026-05-07 00:02 51.46795 -0.46863 97 ft 19 kts 179°
2026-05-07 00:02 51.46668 -0.46904 97 ft 17 kts 236°
2026-05-07 00:02 51.46656 -0.47119 97 ft 21 kts 270°
2026-05-07 00:02 51.46656 -0.47283 97 ft 23 kts 270°
2026-05-07 00:03 51.46655 -0.47550 96 ft 25 kts 269°
2026-05-07 00:03 51.46654 -0.47818 94 ft 22 kts 270°
2026-05-07 00:03 51.46655 -0.48080 97 ft 24 kts 269°
2026-05-07 00:03 51.46653 -0.48322 95 ft 22 kts 269°
2026-05-07 00:04 51.46652 -0.48559 95 ft 15 kts 269°
2026-05-07 00:04 51.46647 -0.48698 96 ft 12 kts 249°
2026-05-07 00:04 51.46571 -0.48774 97 ft 15 kts 193°
2026-05-07 00:04 51.46482 -0.48703 98 ft 17 kts 105°
2026-05-07 00:05 51.46478 -0.48424 96 ft 51 kts 89°
2026-05-07 00:05 51.46485 -0.47398 98 ft 132 kts 89°
2026-05-07 00:05 51.46490 -0.45560 286 ft 183 kts 88°
2026-05-07 00:05 51.46484 -0.43499 1215 ft 187 kts 88°
2026-05-07 00:06 51.46621 -0.41450 2430 ft 181 kts 72°
2026-05-07 00:06 51.47280 -0.39653 3120 ft 194 kts 51°
2026-05-07 00:06 51.48196 -0.37925 3708 ft 210 kts 48°
2026-05-07 00:06 51.49213 -0.36070 4290 ft 231 kts 48°
2026-05-07 00:07 51.50317 -0.34028 4914 ft 250 kts 49°
2026-05-07 00:07 51.51485 -0.31829 5567 ft 266 kts 50°
2026-05-07 00:07 51.52577 -0.29380 5936 ft 274 kts 65°
2026-05-07 00:07 51.53243 -0.26446 6753 ft 280 kts 73°
2026-05-07 00:08 51.53786 -0.23507 7870 ft 277 kts 72°
2026-05-07 00:08 51.54632 -0.20733 8801 ft 280 kts 46°
2026-05-07 00:08 51.56259 -0.19061 9722 ft 281 kts 13°
2026-05-07 00:08 51.58225 -0.18977 10588 ft 283 kts 346°
2026-05-07 00:09 51.60047 -0.20310 11155 ft 298 kts 323°
2026-05-07 00:09 51.61709 -0.22463 11674 ft 315 kts 320°
2026-05-07 00:09 51.63464 -0.24747 12165 ft 333 kts 321°
2026-05-07 00:09 51.65374 -0.27114 12660 ft 351 kts 324°
2026-05-07 00:10 51.67456 -0.29326 13456 ft 357 kts 328°
2026-05-07 00:10 51.69591 -0.31403 14338 ft 360 kts 329°
2026-05-07 00:10 51.71762 -0.33481 15156 ft 364 kts 329°
2026-05-07 00:10 51.73963 -0.35589 15948 ft 369 kts 328°
2026-05-07 00:11 51.76184 -0.37727 16749 ft 374 kts 328°
2026-05-07 00:11 51.78430 -0.39897 17550 ft 379 kts 328°
2026-05-07 00:11 51.80705 -0.42099 18349 ft 383 kts 328°
2026-05-07 00:11 51.83023 -0.44347 19040 ft 388 kts 328°
2026-05-07 00:12 51.85349 -0.46606 19736 ft 392 kts 328°
2026-05-07 00:12 51.87718 -0.48909 20448 ft 395 kts 328°
2026-05-07 00:12 51.90098 -0.51226 21151 ft 399 kts 328°
2026-05-07 00:12 51.92505 -0.53571 21844 ft 403 kts 328°
2026-05-07 00:13 51.94921 -0.55928 22530 ft 407 kts 328°
2026-05-07 00:13 51.97363 -0.58314 23203 ft 411 kts 328°
2026-05-07 00:13 51.99823 -0.60721 23842 ft 416 kts 328°
2026-05-07 00:13 52.02324 -0.63171 24413 ft 419 kts 328°
2026-05-07 00:14 52.04842 -0.65640 24970 ft 423 kts 328°
2026-05-07 00:14 52.07366 -0.68121 25567 ft 426 kts 328°
2026-05-07 00:14 52.09912 -0.70625 26147 ft 429 kts 328°
2026-05-07 00:14 52.12470 -0.73144 26713 ft 432 kts 328°
2026-05-07 00:15 52.15052 -0.75689 27284 ft 435 kts 328°
2026-05-07 00:15 52.17650 -0.78253 27827 ft 438 kts 329°
2026-05-07 00:15 52.20266 -0.80839 28371 ft 442 kts 329°
2026-05-07 00:15 52.22906 -0.83452 28887 ft 445 kts 329°
2026-05-07 00:16 52.25397 -0.85922 29369 ft 449 kts 329°
2026-05-07 00:16 52.28081 -0.88587 29893 ft 452 kts 329°
2026-05-07 00:16 52.30771 -0.91268 30410 ft 454 kts 329°
2026-05-07 00:16 52.33462 -0.93945 31058 ft 451 kts 329°
2026-05-07 00:17 52.36132 -0.96602 31743 ft 448 kts 329°
2026-05-07 00:17 52.38790 -0.99252 32385 ft 446 kts 329°
2026-05-07 00:17 52.41436 -1.01900 32987 ft 445 kts 329°
2026-05-07 00:17 52.44074 -1.04541 33573 ft 444 kts 329°
2026-05-07 00:18 52.46706 -1.07179 34130 ft 443 kts 329°
2026-05-07 00:18 52.49327 -1.09807 34617 ft 442 kts 329°
2026-05-07 00:18 52.51989 -1.12480 35042 ft 442 kts 329°
2026-05-07 00:18 52.54611 -1.15124 35447 ft 442 kts 329°
2026-05-07 00:19 52.57212 -1.17746 35848 ft 443 kts 329°
2026-05-07 00:19 52.59864 -1.20419 36220 ft 443 kts 329°
2026-05-07 00:19 52.62507 -1.23088 36553 ft 445 kts 328°
2026-05-07 00:19 52.65149 -1.25762 36837 ft 447 kts 328°
2026-05-07 00:20 52.67805 -1.28455 37117 ft 449 kts 328°
2026-05-07 00:20 52.70473 -1.31164 37379 ft 451 kts 328°
2026-05-07 00:20 52.73154 -1.33891 37650 ft 453 kts 328°
2026-05-07 00:20 52.75803 -1.36592 37990 ft 455 kts 328°
2026-05-07 00:21 52.81300 -1.42210 38086 ft 457 kts 328°
2026-05-07 00:21 52.86668 -1.47710 38088 ft 457 kts 328°
2026-05-07 00:22 52.92087 -1.53278 38090 ft 456 kts 328°
2026-05-07 00:22 52.97498 -1.58854 38093 ft 456 kts 328°
2026-05-07 00:23 53.02928 -1.64318 38099 ft 454 kts 330°
2026-05-07 00:23 53.08601 -1.68929 38100 ft 454 kts 336°
2026-05-07 00:24 53.14499 -1.72720 38104 ft 454 kts 339°
2026-05-07 00:24 53.20442 -1.76387 38265 ft 450 kts 339°
2026-05-07 00:25 53.26409 -1.80083 38144 ft 453 kts 339°
2026-05-07 00:25 53.32330 -1.83777 38107 ft 453 kts 339°
2026-05-07 00:26 53.38295 -1.87512 38098 ft 453 kts 339°
2026-05-07 00:26 53.44196 -1.91220 38097 ft 452 kts 339°
2026-05-07 00:27 53.50093 -1.94935 38099 ft 452 kts 339°
2026-05-07 00:27 53.56022 -1.98682 38098 ft 452 kts 339°
2026-05-07 00:28 53.61880 -2.02394 38099 ft 453 kts 339°
2026-05-07 00:28 53.67793 -2.06152 38098 ft 453 kts 339°
2026-05-07 00:29 53.72732 -2.09302 38103 ft 451 kts 339°
2026-05-07 00:30 53.82053 -2.15560 38094 ft 426 kts 337°
2026-05-07 00:30 53.84798 -2.17448 38093 ft 426 kts 337°
2026-05-07 00:30 53.90327 -2.21237 38096 ft 426 kts 337°
2026-05-07 00:31 53.95805 -2.24994 38095 ft 426 kts 337°
2026-05-07 00:31 54.01251 -2.28870 38099 ft 423 kts 334°
2026-05-07 00:32 54.06472 -2.33504 38088 ft 422 kts 330°
2026-05-07 00:32 54.11654 -2.38374 38093 ft 432 kts 330°
2026-05-07 00:33 54.17007 -2.43418 37869 ft 445 kts 330°
2026-05-07 00:33 54.19721 -2.45979 37550 ft 445 kts 330°
2026-05-07 00:33 54.22425 -2.48533 37201 ft 442 kts 331°
2026-05-07 00:34 54.25101 -2.51060 36794 ft 437 kts 331°
2026-05-07 00:34 54.27753 -2.53571 36345 ft 434 kts 331°
2026-05-07 00:34 54.30392 -2.56073 35848 ft 434 kts 331°
2026-05-07 00:34 54.33038 -2.58584 35336 ft 434 kts 332°
2026-05-07 00:35 54.35674 -2.61090 34809 ft 434 kts 332°
2026-05-07 00:35 54.38323 -2.63612 34267 ft 434 kts 332°
2026-05-07 00:35 54.40962 -2.66126 33703 ft 434 kts 332°
2026-05-07 00:35 54.43604 -2.68636 33100 ft 433 kts 332°
2026-05-07 00:36 54.46299 -2.71202 32498 ft 433 kts 331°
2026-05-07 00:36 54.48967 -2.73744 31893 ft 433 kts 330°
2026-05-07 00:36 54.51603 -2.76266 31326 ft 433 kts 330°
2026-05-07 00:36 54.54235 -2.78793 30716 ft 434 kts 329°
2026-05-07 00:37 54.56878 -2.81335 30036 ft 436 kts 329°
2026-05-07 00:37 54.59532 -2.83896 29392 ft 436 kts 329°
2026-05-07 00:37 54.62173 -2.86447 29003 ft 435 kts 329°
2026-05-07 00:37 54.64805 -2.88993 28596 ft 432 kts 329°
2026-05-07 00:38 54.67416 -2.91520 28191 ft 429 kts 329°
2026-05-07 00:38 54.70013 -2.94036 27773 ft 426 kts 329°
2026-05-07 00:38 54.72592 -2.96535 27390 ft 423 kts 328°
2026-05-07 00:38 54.75155 -2.99018 27012 ft 421 kts 328°
2026-05-07 00:39 54.77686 -3.01483 26630 ft 418 kts 328°
2026-05-07 00:39 54.80217 -3.03954 26232 ft 415 kts 328°
2026-05-07 00:39 54.82712 -3.06390 26051 ft 406 kts 328°
2026-05-07 00:39 54.85139 -3.08760 26049 ft 393 kts 328°
2026-05-07 00:40 54.87476 -3.11045 26045 ft 378 kts 328°
2026-05-07 00:40 54.89689 -3.13213 26039 ft 363 kts 328°
2026-05-07 00:40 54.91871 -3.15353 26038 ft 348 kts 328°
2026-05-07 00:40 54.93951 -3.17397 25882 ft 339 kts 327°
2026-05-07 00:41 54.95993 -3.19410 25579 ft 335 kts 327°
2026-05-07 00:41 54.97328 -3.20725 25387 ft 332 kts 327°
2026-05-07 00:41 54.99330 -3.22696 25087 ft 327 kts 327°
2026-05-07 00:41 55.01288 -3.24631 24790 ft 323 kts 327°
2026-05-07 00:42 55.03227 -3.26549 24497 ft 318 kts 327°
2026-05-07 00:42 55.05140 -3.28442 24208 ft 314 kts 327°
2026-05-07 00:42 55.07046 -3.30329 23917 ft 309 kts 327°
2026-05-07 00:42 55.08907 -3.32174 23626 ft 305 kts 327°
2026-05-07 00:43 55.10742 -3.33996 23231 ft 303 kts 327°
2026-05-07 00:43 55.12568 -3.35811 22809 ft 301 kts 327°
2026-05-07 00:43 55.14386 -3.37620 22372 ft 300 kts 327°
2026-05-07 00:43 55.16210 -3.39439 21728 ft 306 kts 327°
2026-05-07 00:44 55.18093 -3.41323 20876 ft 318 kts 327°
2026-05-07 00:44 55.20059 -3.43289 20032 ft 330 kts 327°
2026-05-07 00:44 55.22084 -3.45314 19601 ft 339 kts 327°
2026-05-07 00:44 55.24150 -3.47376 19199 ft 343 kts 327°
2026-05-07 00:45 55.26221 -3.49447 18731 ft 343 kts 327°
2026-05-07 00:45 55.28282 -3.51510 18396 ft 340 kts 327°
2026-05-07 00:45 55.30336 -3.53568 18009 ft 336 kts 327°
2026-05-07 00:45 55.32351 -3.55590 17655 ft 331 kts 327°
2026-05-07 00:46 55.34338 -3.57588 17308 ft 327 kts 327°
2026-05-07 00:46 55.36312 -3.59576 16870 ft 325 kts 327°
2026-05-07 00:46 55.38271 -3.61551 16431 ft 324 kts 327°
2026-05-07 00:46 55.40219 -3.63516 16038 ft 322 kts 327°
2026-05-07 00:47 55.42155 -3.65472 15654 ft 320 kts 327°
2026-05-07 00:47 55.44082 -3.67421 15255 ft 319 kts 327°
2026-05-07 00:47 55.46000 -3.69363 14885 ft 317 kts 327°
2026-05-07 00:47 55.47903 -3.71290 14579 ft 313 kts 327°
2026-05-07 00:48 55.49777 -3.73190 14291 ft 308 kts 327°
2026-05-07 00:48 55.51624 -3.75067 14008 ft 304 kts 327°
2026-05-07 00:48 55.53441 -3.76915 13706 ft 300 kts 327°
2026-05-07 00:48 55.55234 -3.78741 13392 ft 295 kts 327°
2026-05-07 00:49 55.57011 -3.80551 13038 ft 292 kts 327°
2026-05-07 00:49 55.58766 -3.82344 12662 ft 290 kts 327°
2026-05-07 00:49 55.60511 -3.84126 12274 ft 289 kts 327°
2026-05-07 00:49 55.62255 -3.85910 11871 ft 288 kts 327°
2026-05-07 00:50 55.63987 -3.87683 11494 ft 287 kts 327°
2026-05-07 00:50 55.65717 -3.89457 11120 ft 286 kts 327°
2026-05-07 00:50 55.67432 -3.91218 10612 ft 285 kts 327°
2026-05-07 00:50 55.69118 -3.92968 10182 ft 275 kts 323°
2026-05-07 00:51 55.70509 -3.95260 9729 ft 262 kts 302°
2026-05-07 00:51 55.71468 -3.97933 9321 ft 252 kts 298°
2026-05-07 00:51 55.72360 -4.00617 8885 ft 250 kts 297°
2026-05-07 00:51 55.73225 -4.03232 8551 ft 249 kts 297°
2026-05-07 00:52 55.74100 -4.05868 8174 ft 245 kts 298°
2026-05-07 00:52 55.74972 -4.08472 7898 ft 239 kts 297°
2026-05-07 00:52 55.75816 -4.10991 7631 ft 237 kts 297°
2026-05-07 00:52 55.76660 -4.13509 7297 ft 237 kts 297°
2026-05-07 00:53 55.77507 -4.16034 7062 ft 235 kts 297°
2026-05-07 00:53 55.78348 -4.18541 7024 ft 237 kts 297°
2026-05-07 00:53 55.79191 -4.21059 7010 ft 237 kts 297°
2026-05-07 00:53 55.80040 -4.23592 6996 ft 237 kts 297°
2026-05-07 00:54 55.80883 -4.26109 7006 ft 237 kts 297°
2026-05-07 00:54 55.81727 -4.28633 6991 ft 237 kts 297°
2026-05-07 00:54 55.82570 -4.31156 7003 ft 237 kts 297°
2026-05-07 00:54 55.83413 -4.33680 7004 ft 237 kts 297°
2026-05-07 00:55 55.84256 -4.36212 6989 ft 237 kts 297°
2026-05-07 00:55 55.85099 -4.38740 6998 ft 237 kts 297°
2026-05-07 00:55 55.85698 -4.41423 6967 ft 232 kts 272°
2026-05-07 00:55 55.85458 -4.44203 6983 ft 228 kts 243°
2026-05-07 00:56 55.84539 -4.46314 7003 ft 227 kts 216°
2026-05-07 00:56 55.83144 -4.47611 6891 ft 226 kts 204°
2026-05-07 00:56 55.81699 -4.48674 6658 ft 223 kts 203°
2026-05-07 00:56 55.80277 -4.49713 6433 ft 219 kts 203°
2026-05-07 00:57 55.78880 -4.50745 6205 ft 215 kts 203°
2026-05-07 00:57 55.77513 -4.51764 5963 ft 212 kts 203°
2026-05-07 00:57 55.76166 -4.52771 5738 ft 207 kts 203°
2026-05-07 00:57 55.74851 -4.53754 5473 ft 202 kts 203°
2026-05-07 00:58 55.73569 -4.54715 5075 ft 197 kts 203°
2026-05-07 00:58 55.72330 -4.55643 4792 ft 189 kts 203°
2026-05-07 00:58 55.71152 -4.56526 4529 ft 179 kts 203°
2026-05-07 00:58 55.70065 -4.57452 4344 ft 170 kts 214°
2026-05-07 00:59 55.68680 -4.60824 3943 ft 175 kts 249°
2026-05-07 00:59 55.68540 -4.62929 3702 ft 168 kts 268°
2026-05-07 00:59 55.68791 -4.64945 3516 ft 165 kts 286°
2026-05-07 01:00 55.69376 -4.66665 3312 ft 164 kts 305°
2026-05-07 01:00 55.70252 -4.67991 3142 ft 168 kts 324°
2026-05-07 01:00 55.71346 -4.68761 2949 ft 172 kts 345°
2026-05-07 01:00 55.72545 -4.68846 2746 ft 175 kts
2026-05-07 01:01 55.73668 -4.68060 2561 ft 174 kts 34°
2026-05-07 01:01 55.74614 -4.66740 2414 ft 172 kts 44°
2026-05-07 01:01 55.75478 -4.65285 2405 ft 171 kts 48°
2026-05-07 01:01 55.76308 -4.63784 2388 ft 170 kts 50°
2026-05-07 01:02 55.77124 -4.62256 2401 ft 170 kts 50°
2026-05-07 01:02 55.77923 -4.60743 2409 ft 170 kts 50°
2026-05-07 01:02 55.78747 -4.59184 2286 ft 170 kts 50°
2026-05-07 01:02 55.79566 -4.57638 2054 ft 168 kts 50°
2026-05-07 01:03 55.80364 -4.56133 1821 ft 166 kts 49°
2026-05-07 01:03 55.81157 -4.54645 1598 ft 164 kts 50°
2026-05-07 01:03 55.81935 -4.53184 1357 ft 161 kts 50°
2026-05-07 01:03 55.82700 -4.51741 1124 ft 158 kts 49°
2026-05-07 01:04 55.83448 -4.50342 895 ft 154 kts 49°
2026-05-07 01:04 55.84199 -4.48932 719 ft 165 kts 48°
2026-05-07 01:04 55.84970 -4.47484 462 ft 157 kts 48°
2026-05-07 01:04 55.85706 -4.46132 228 ft 149 kts 48°
2026-05-07 01:05 55.86405 -4.44815 46 ft 142 kts 48°
2026-05-07 01:05 55.86955 -4.43775 37 ft 77 kts 47°
2026-05-07 01:05 55.87219 -4.43235 37 ft 35 kts 77°
2026-05-07 01:05 55.87211 -4.42930 37 ft 18 kts 94°
2026-05-07 01:06 55.87206 -4.42808 37 ft 4 kts 109°
2026-05-07 01:06 55.87169 -4.42768 37 ft 8 kts 174°
2026-05-07 01:06 55.87090 -4.42793 37 ft 17 kts 198°
2026-05-07 01:06 55.86964 -4.42880 37 ft 20 kts 207°
2026-05-07 01:07 55.86859 -4.42982 37 ft 12 kts 226°
2026-05-07 01:07 55.86828 -4.43145 37 ft 16 kts 253°
2026-05-07 01:07 55.86794 -4.43356 37 ft 19 kts 254°
2026-05-07 01:07 55.86759 -4.43567 37 ft 19 kts 254°
2026-05-07 01:08 55.86719 -4.43774 37 ft 17 kts 233°
2026-05-07 01:08 55.86630 -4.43951 37 ft 21 kts 226°
2026-05-07 01:08 55.86562 -4.44036 37 ft 12 kts 186°
2026-05-07 01:08 55.86482 -4.43975 37 ft 10 kts 148°
2026-05-07 01:09 55.86445 -4.43933 35 ft 4 kts 141°
2026-05-07 01:09 55.86440 -4.43922 36 ft 2 kts 122°
2026-05-07 01:09 55.86443 -4.43873 37 ft 7 kts 72°
2026-05-07 01:09 55.86451 -4.43840 37 ft 3 kts 64°
2026-05-07 01:10 55.86459 -4.43810 37 ft 0 kts 63°
2026-05-07 01:10 55.86460 -4.43810 37 ft 0 kts 63°